Simultaneous Nadir Overpasses (SNOs) Predictions

Prediction of SNOs between GOES-16 and METOP-B Satellite Orbit:

Table of predicted SNOs for the next 14.0 days since TLE Epoch: 6/1/2019
Index Date Time (GOES-16) GOES-16 Lat,Lon METOP-B Lat,Lon Distance(km) Time Diff (sec)
1 06/02/2019 02:42:18 0.01, -75.19 -0.57, -77.78 294.19 80
2 06/03/2019 02:18:58 0.01, -75.20 0.53, -72.78 275.29 80
3 06/04/2019 14:37:51 -0.01, -75.21 0.46, -77.34 242.60 80
4 06/05/2019 14:19:51 -0.00, -75.22 -0.64, -72.35 326.98 80
5 06/07/2019 02:38:52 -0.00, -75.21 -0.41, -76.94 197.11 80
6 06/08/2019 02:15:33 -0.00, -75.22 0.75, -71.95 372.68 80
7 06/09/2019 14:37:04 0.01, -75.24 0.30, -76.51 144.58 80
8 06/10/2019 14:13:46 0.00, -75.25 -0.85, -71.52 425.60 80
9 06/12/2019 02:35:26 -0.01, -75.26 -0.18, -76.12 97.17 80
10 06/13/2019 02:12:07 -0.00, -75.27 0.92, -71.12 473.44 80
11 06/14/2019 14:33:39 0.01, -75.31 0.08, -75.68 42.59 80




NCC Satellite Simultaneous Nadir Overpasses (SNOs) Prediction Service
